Location: Beaurecueil
(43.5122°N, 5.5450°E)
Time: 14:36:48
(UTC+00:00)

USA 186 - Pass Details

Date: 18 September 2020
Orbit: 261 x 425 km, 96.9° (Epoch: 12 October)

Event Time Altitude Azimuth Distance (km) Brightness Sun altitude
Exits shadow 18:49:23 22° 126° (SE) 916 2.9 -12.9°
Maximum altitude 18:50:51 37° 73° (ENE) 648 2.3 -13.2°
Drops below altitude 10° 18:53:51 10° 4° (N) 1,498 4.7 -13.7°
Sets 18:55:58 0° 356° (N) 2,385 5.8 -14.1°
